Regional Weather Roundup
Issued by NWS

Home | Current Version | Previous Version | Graphics & Text | Print | Product List | Glossary On
Versions: 1 2 3 4 5 6 7 8 9 10 11 12 13 14 15 16 17 18 19 20 21 22 23 24 25 26 27 28 29 30 31 32 33 34 35 36 37 38 39 40 41 42 43 44 45 46 47 48 49 50
000
ASUS43 KOAX 211210
RWRNE

WEATHER ROUNDUP FOR NEBRASKA
NATIONAL WEATHER SERVICE OMAHA NE
700 AM CDT TUE OCT 21 2014

NOTES: SATELLITE DATA IS BEING USED TO AUGMENT CLOUD COVER ABOVE
       12000 FEET.
       "FAIR" INDICATES FEW OR NO CLOUDS BELOW 12,000 FEET WITH NO
       SIGNIFICANT WEATHER AND/OR OBSTRUCTIONS TO VISIBILITY.

  * THESE STATIONS DO NOT REPORT WEATHER SUCH AS RAIN...SNOW OR FOG.

NEZ001>004-019>022-054>056-211300-
NEBRASKA PANHANDLE

CITY           SKY/WX    TMP DP  RH WIND       PRES   REMARKS
SCOTTSBLUFF    CLEAR     46  41  82 E8        29.96S
6HR MIN TEMP:  44; 6HR MAX TEMP:  63;

ALLIANCE       CLEAR     42  39  89 SE3       29.97S
6HR MIN TEMP:  42; 6HR MAX TEMP:  52;

CHADRON        CLEAR     48  41  76 S6        29.90S
6HR MIN TEMP:  46; 6HR MAX TEMP:  65; 6HR PCP: TRACE;

KIMBALL        CLEAR     40  38  92 W7        30.00S WCI  35
SIDNEY         CLEAR     44  41  89 S8        30.00F
6HR MIN TEMP:  44; 6HR MAX TEMP:  56;

$$

NEZ057>060-069>072-079>082-211300-
SOUTHWEST NEBRASKA

CITY           SKY/WX    TMP DP  RH WIND       PRES   REMARKS
NORTH PLATTE   CLEAR     45  38  76 CALM      30.04S
6HR MIN TEMP:  44; 6HR MAX TEMP:  57;

IMPERIAL       CLEAR     53  46  77 S6        30.03S
6HR MIN TEMP:  51; 6HR MAX TEMP:  54;

LEXINGTON      CLEAR     42  39  88 SE5       30.06S
MCCOOK         CLEAR     43  37  79 CALM      30.06S
6HR MIN TEMP:  41; 6HR MAX TEMP:  55;

OGALLALA       CLEAR     42  37  85 CALM      30.02S
$$

NEZ005>010-023>029-035>040-094-211300-
NORTH CENTRAL NEBRASKA

CITY           SKY/WX    TMP DP  RH WIND       PRES   REMARKS
VALENTINE      CLEAR     50  39  66 S12       29.96S
6HR MIN TEMP:  48; 6HR MAX TEMP:  59;

AINSWORTH      CLEAR     52  40  63 S14       29.99S
BROKEN BOW     CLEAR     40  36  86 CALM      30.04S
6HR MIN TEMP:  36; 6HR MAX TEMP:  51;

O`NEILL        CLEAR     46  42  84 SE7       30.03R
ORD            CLEAR     36  35  96 CALM      30.04S
6HR MIN TEMP:  36; 6HR MAX TEMP:  43;

THEDFORD       CLEAR     49  40  70 S6        30.02S
$$

NEZ041-046>049-061>064-073>077-083>087-211300-
SOUTH CENTRAL NEBRASKA

CITY           SKY/WX    TMP DP  RH WIND       PRES   REMARKS
GRAND ISLAND   CLEAR     47  41  80 S3        30.08R
6HR MIN TEMP:  46; 6HR MAX TEMP:  51;

AURORA         CLEAR     40  37  86 S3        30.08S
HASTINGS       CLEAR     48  40  73 S5        30.07S
6HR MIN TEMP:  47; 6HR MAX TEMP:  55;

HEBRON         CLEAR     38  35  90 CALM      30.10S
HOLDREGE       CLEAR     47  40  77 CALM      30.07S
KEARNEY *      CLEAR     39  36  87 S5        30.08S
YORK           CLEAR     45  39  81 S6        30.09S
$$

NEZ011>018-030>034-042>045-211300-
NORTHEAST NEBRASKA

CITY           SKY/WX    TMP DP  RH WIND       PRES   REMARKS
NORFOLK        CLEAR     40  35  83 CALM      30.07F
6HR MIN TEMP:  38; 6HR MAX TEMP:  45;

ALBION         CLEAR     42  35  78 SE6       30.07S
BLAIR          CLEAR     50  39  67 CALM      30.10S
COLUMBUS *     CLEAR     37  32  81 CALM      30.10S
FREMONT        CLEAR     41  39  93 CALM      30.10S FOG
TEKAMAH        CLEAR     36  34  92 N3        30.11S
6HR MIN TEMP:  35; 6HR MAX TEMP:  42;

WAYNE          CLEAR     36  33  90 CALM      30.09S
$$

NEZ050>053-065>068-078-088>093-211300-
SOUTHEAST NEBRASKA

CITY           SKY/WX    TMP DP  RH WIND       PRES   REMARKS
LINCOLN        CLEAR     37  33  85 N3        30.12R
6HR MIN TEMP:  36; 6HR MAX TEMP:  42;

OMAHA EPPLEY   CLEAR     40  38  93 CALM      30.12R
6HR MIN TEMP:  39; 6HR MAX TEMP:  46;

BEATRICE       CLEAR     40  36  87 CALM      30.10S
FALLS CITY     CLEAR     38  36  92 CALM      30.11R
6HR MIN TEMP:  36; 6HR MAX TEMP:  45;

NEBRASKA CITY  CLEAR     43  35  73 CALM      30.11R
PLATTSMOUTH    CLEAR     43  37  81 CALM      30.10S
$$

NEZ044-045-051>053-067-211300-
OMAHA AREA

CITY           SKY/WX    TMP DP  RH WIND       PRES   REMARKS
OMAHA EPPLEY   CLEAR     40  38  93 CALM      30.12R
6HR MIN TEMP:  39; 6HR MAX TEMP:  46;

BLAIR          CLEAR     50  39  67 CALM      30.10S
FREMONT        CLEAR     41  39  93 CALM      30.10S FOG
MILLARD        CLEAR     41  40  96 CALM      30.10S
OFFUTT AFB     CLEAR     36  36 100 E1        30.10S
PLATTSMOUTH    CLEAR     43  37  81 CALM      30.10S
WAHOO          FAIR      38  35  89 CALM      30.10R
$$



USA.gov is the U.S. government's official web portal to all federal, state and local government web resources and services.